User: anonymous
Location: Caltech
(34.1382°N, 118.1253°W)
Time: 00:57:32
(UTC-07:00)
Language:

Iridium 12 - Orbit

View from above orbital plane
View from above orbital plane
View from above satellite
View from above satellite

Ground track
Ground track

The orbit data is extracted from the following two-line orbital elements,

1 24837U 97030B   14262.36897135  .00000194  00000-0  62356-4 0  9855
2 24837 086.3959 048.8622 0002135 111.1576 306.5467 14.34221261903356
Epoch (UTC): 19 September 2014 08:51:19
Eccentricity: 0.0002135
inclination: 86.3959°
perigee height: 776 km
apogee height: 779 km
right ascension of ascending node: 48.8622°
argument of perigee: 111.1576°
revolutions per day: 14.34221261
mean anomaly at epoch: 306.5467°
orbit number at epoch: 90335

The dashed part of the orbit path shows where the satellite is in the earth's shadow,  

DLR